Regional Weather Roundup
Issued by NWS

Home | Current Version | Previous Version | Text Only | Print | Product List | Glossary On
Versions: 1 2 3 4 5 6 7 8 9 10 11 12 13 14 15 16 17 18 19 20 21 22 23 24 25 26 27 28 29 30 31 32 33 34 35 36 37 38 39 40 41 42 43 44 45 46 47 48 49 50
056
ASUS45 KBOU 301607
RWRCO

WEATHER ROUNDUP FOR COLORADO
NATIONAL WEATHER SERVICE DENVER/BOULDER CO
1000 AM MDT THU MAR 30 2017

NOTE: "FAIR" INDICATES FEW OR NO CLOUDS BELOW 12000 FEET WITH NO
SIGNIFICANT WEATHER AND/OR OBSTRUCTIONS TO VISIBILITY.

COZ001>005-013-030-031-301700-
...NORTHWEST COLORADO...

CITY           SKY/WX    TMP DP  RH WIND       PRES   REMARKS
CRAIG          CLOUDY    45  28  51 NE7       29.87F
HAYDEN         CLOUDY    43  25  49 E10       29.87F
MEEKER         CLOUDY    46  33  60 CALM      29.88F
MOUNT WERNER   NOT AVBL
STEAMBOAT SPGS CLOUDY    39  29  65 CALM      29.88F
WALDEN         NOT AVBL
$$

COZ006>008-011-301700-
...WEST CENTRAL VALLEYS...

CITY           SKY/WX    TMP DP  RH WIND       PRES   REMARKS
GRAND JUNCTION CLOUDY    49  30  48 SE14      29.88F
MONTROSE       FAIR      48  26  42 CALM      29.93F
EAGLE          MOSUNNY   43  28  56 E5        29.94F
RIFLE          CLOUDY    44  29  55 VRB3      29.91F
DELTA          FAIR      48  30  49 E3        29.92F
NUCLA          FAIR      46  28  49 CALM      29.96F
$$

COZ017>023-064>068-301700-
...SOUTHWEST COLORADO...

CITY           SKY/WX    TMP DP  RH WIND       PRES   REMARKS
DURANGO        FAIR      43  23  45 E7        29.97F
CORTEZ         FAIR      49  26  41 CALM      29.95F
PAGOSA SPRINGS FAIR      42  24  47 SE3       30.00F
TELLURIDE      FAIR      38  23  54 CALM      30.02F
WOLF CREEK PAS FAIR      28   9  43 S9        30.12F WCI  20
$$

COZ009-010-012-014-032>034-037-058>063-301700-
...CENTRAL COLORADO...

CITY           SKY/WX    TMP DP  RH WIND       PRES   REMARKS
ASPEN          PTSUNNY   40  25  55 CALM      29.92F
BUENA VISTA    FAIR      48  19  32 S5        29.92F
COPPER MTN     NOT AVBL
BERTHOUD PASS  CLOUDY    21  10  63 W21G30    29.99F WCI   6
COTTONWOOD PAS FAIR      41  19  42 NW3       29.96F
GUNNISON       FAIR      38  24  57 CALM      29.99F
KREMMLING      CLOUDY    43  32  65 E3        29.92F
LEADVILLE      CLOUDY    36  19  50 N10       29.95F
MONARCH PASS   FAIR      25  19  80 W26G35    30.13F WCI   9
SALIDA         FAIR      50  21  31 SW9G20    29.98F
SUNLIGHT       CLOUDY    32  21  64 SW7G18    30.03F WCI  26
WILKERSON PASS FAIR      32  21  64 SW12G20   30.02R WCI  23
$$

COZ069>075-301700-
...SAN LUIS VALLEY/SANGRE DE CRISTO MOUNTAINS...

CITY           SKY/WX    TMP DP  RH WIND       PRES   REMARKS
ALAMOSA        FAIR      42  24  49 SW5       29.97F
LA VETA PASS   NOT AVBL
SAGUACHE       FAIR      41  21  45 E3        29.98F
$$

COZ035-036-038>040-301700-
...NORTHERN COLORADO FRONT RANGE...

CITY           SKY/WX    TMP DP  RH WIND       PRES   REMARKS
DENVER INTL AP PTSUNNY   51  33  50 SW9       29.79F
DMNS CITY PARK   N/A     55  28  35 SW3G10    29.78F
AURORA         NOT AVBL
FRONT RANGE AP PTSUNNY   57  32  38 SW7       29.80F
ERIE MUNI ARPT FAIR      46  39  78 CALM        N/A
BOULDER MUN AP PTSUNNY   43  34  70 CALM      29.79S
CENTENNIAL     PTSUNNY   54  27  35 SW7       29.80F
BROOMFIELD     PTSUNNY   48  37  66 SE3       29.79F
FORT COLLINS   FAIR      45  37  73 N3        29.79F
LONGMONT       FAIR      44  36  72 W3        29.81S
$$

COZ041-046-047-076>085-087-088-301700-
...PIKES PEAK/PALMER DIVIDE AND SOUTHERN FOOTHILLS...

CITY           SKY/WX    TMP DP  RH WIND       PRES   REMARKS
COLO. SPRINGS  PTSUNNY   51  25  36 S6        29.85F
A. F. ACADEMY  SUNNY     49  24  37 S7        29.84F
SCHRIEVER AFB  FAIR      52  23  32 SW7       29.85S
ELLICOTT       FAIR     N/A N/A N/A CALM      29.83F
FALCON         FAIR      51  23  33 W7        29.87S
FORT CARSON    FAIR      52  27  38 SE6       29.83F
LIMON          FAIR      46  35  65 W8        29.81F
MONUMENT HILL  FAIR      45  28  53 SW10      29.87S
TRINIDAD       FAIR      47  33  58 S3        29.87S
$$

COZ042>045-048>051-090-091-301700-
...NORTHEAST COLORADO...

CITY           SKY/WX    TMP DP  RH WIND       PRES   REMARKS
GREELEY ARPT   FAIR      45  37  73 S3        29.80F
AKRON          FAIR      46  37  71 W6        29.79S
BURLINGTON     FAIR      47  39  74 NE8       29.80S
WRAY           FOG      N/A N/A N/A CALM      29.82F VSB<1/4
STERLING       FAIR      43  37  81 S6        29.78S
HOLYOKE        FOG       37  36  93 CALM      29.81S VSB 1/4
FORT MORGAN    FAIR      38  36  92 W5        29.80F
$$

COZ086-089-092>099-301700-
...SOUTHEAST COLORADO...

CITY           SKY/WX    TMP DP  RH WIND       PRES   REMARKS
PUEBLO         FAIR      48  36  63 CALM      29.82F
LA JUNTA       FAIR      47  39  74 W8        29.82F
LAMAR          FAIR      48  38  68 W5        29.80F
SPRINGFIELD      N/A     58  34  40 NW10      29.82R
$$




USA.gov is the U.S. government's official web portal to all federal, state and local government web resources and services.